www.pogodaiklimat.ru

Погода и климат >> Архив погоды >> Россия >> Хабаровский край >> Богородское


ПОГОДА в Богородском

  • Прогноз погоды в Богородском
  • Монитор погоды в Богородском

АРХИВ ПОГОДЫ в Богородском

Время (UTC), дата Ветер
(напр.,м/с)
 
Видим.   Явления Облачность Т
(С)
Тd
(С)
f
(%)
Тe
(С)
Тes
(С)
Комфортность P
(гПа)
Po
(гПа)
Тmin
(С)
Tmax
(С)
R
(мм)
R24
(мм)
S
(см)
00 18.03 С 5 50 км 9/0
[Ac lent Ci fib]
-5.3 -10.5 67 -12 -10 1003.5 999.0
03 18.03 С 5
{11}
50 км 9/1 600 м
[Sc Ac As Ci sp]
-2.2 -9.1 59 -8 -6 1002.5 998.2
06 18.03 С 5
{11}
50 км 10/0
[Ac As Ci fib]
-1.8 -8.8 59 -8 -7 1001.3 997.0
09 18.03 В 3 10 км слаб. снег 10/0
[Ac As]
-3.9 -8.1 73 -9 -9 1001.8 997.4 -0.8
12 18.03 СВ 3 4000 м снег 10/0
[As op]
-6.0 -8.0 86 -12 -12 1001.1 996.7
15 18.03 С 4 4000 м снег 10/0
[As op]
-7.5 -9.3 87 -14 -14 1002.0 997.5
18 18.03 С 6-10
{13}
2000 м снег {метель} 10/0
[As op]
-10.8 -12.7 86 -19 -19 1004.5 1000.0
21 18.03 С 6
{13}
2000 м снег {метель} 10/3 600 м
[Sc As op]
-12.1 -14.3 84 -21 -21 1008.9 1004.3 -12.1 6 42
00 19.03 С 6-11
{13}
10 км слаб. снег {метель} 10/5 600 м
[Sc As op]
-11.3 -16.2 67 -20 -20 1013.1 1008.5 -12.1
03 19.03 С 5
{12}
50 км позёмок {снег} 6/3 600 м
[Sc Ac lent Ci fib]
-8.7 -17.7 48 -16 -14 1015.6 1011.0
06 19.03 С 4
{12}
50 км позёмок {снег} 3/3 600 м
[Sc]
-7.9 -18.7 42 -14 -13 1017.1 1012.6
09 19.03 СВ 2 50 км {метель} 3/3 600 м
[Sc]
-10.5 -19.5 48 -15 -15 1018.5 1013.9 -7.8 0.3
12 19.03 ЮЗ 1 50 км {метель} ясно -16.2 -19.3 77 -19 -19 1019.8 1015.1
15 19.03 СЗ 1 50 км 5/0
[Ac lent Ci fib]
-19.2 -21.6 81 -22 -22 1019.9 1015.1
18 19.03 штиль 0 50 км 8/0
[Ci fib]
-21.6 -24.2 79 -22 -22 1018.9 1014.2
21 19.03 С 1 50 км 3/0
[Ac trans Ci fib]
-21.7 -24.3 79 -25 -25 1018.1 1013.3 -22.0 42
00 20.03 С 4 50 км 8/0
[As trans Cs]
-16.3 -20.5 70 -24 -22 1017.6 1012.9 -22.2
03 20.03 С 4 50 км 8/6 600 м
[Sc As trans Cs]
-8.8 -17.6 49 -15 -14 1016.9 1012.3
06 20.03 С 4 50 км 6/6 600 м
[Cb cap]
-7.6 -18.6 41 -14 -13 1017.3 1012.8
09 20.03 СВ 2 50 км 3/3 600 м
[Cb cap]
-9.0 -19.8 41 -13 -13 1019.6 1015.0 -7.4
12 20.03 штиль 0 50 км ясно -15.1 -18.2 77 -15 -15 1021.5 1016.9
15 20.03 В 1 50 км ясно -19.9 -22.1 83 -23 -23 1021.8 1017.0
18 20.03 В 1 50 км ясно -21.9 -24.5 79 -25 -25 1021.8 1017.0
21 20.03 СВ 1 50 км ясно -23.5 -26.4 77 -27 -27 1021.5 1016.7 -23.9 41
00 21.03 С 1 50 км 8/0
[Ci]
-13.0 -18.9 61 -15 -10 1020.7 1016.0
03 21.03 С 2 50 км 10/0
[Cs]
-8.2 -19.6 39 -12 -5 1018.1 1013.6
06 21.03 Ю 3 50 км 10/1 600 м
[Cb cap Cs]
-8.3 -16.2 53 -14 -12 1016.8 1012.3
09 21.03 СВ 2 50 км 10/0
[Cs]
-10.1 -24.0 31 -14 -14 1016.6 1012.1 -6.7
12 21.03 СВ 1 50 км 10/0
[Cs]
-12.5 -23.4 40 -15 -15 1016.8 1012.2
15 21.03 С 1 50 км 10/0
[Cs]
-16.6 -22.7 59 -19 -19 1016.0 1011.3
18 21.03 штиль 0 50 км 10/0
[Cs]
-17.8 -22.5 67 -18 -18 1014.4 1009.7
21 21.03 С 4 50 км 10/0
[Cs]
-17.1 -22.8 61 -25 -25 1014.2 1009.5 -18.1 41
03 22.03 С 5 50 км 9/0
[Cs]
-10.3 -20.8 42 -18 -14 1012.8 1008.2
06 22.03 С 4 50 км 10/0
[Cs]
-8.6 -20.3 38 -15 -13 1012.2 1007.7
09 22.03 СВ 3 50 км 6/0
[Cs]
-9.6 -21.3 38 -15 -15 1012.5 1008.0 -8.4
12 22.03 С 1 50 км 6/0
[Cs]
-13.3 -21.1 52 -16 -16 1013.2 1008.6
15 22.03 С 1 50 км 3/0
[Cs]
-17.4 -22.0 67 -20 -20 1012.6 1007.9
18 22.03 С 2 50 км 4/0
[Cs]
-18.5 -23.7 64 -24 -24 1011.8 1007.1
21 22.03 штиль 0 50 км 3/0
[Cs]
-21.6 -24.9 75 -22 -21 1011.3 1006.5 -21.7 41
00 23.03 Ю 1 50 км 4/0
[Ci fib]
-16.2 -23.4 54 -19 -13 1010.3 1005.6 -22.0
03 23.03 Ю 2 50 км 8/0
[Ci fib]
-11.9 -19.4 54 -16 -9 1008.2 1003.6
06 23.03 С 3 50 км 8/0
[Ci fib]
-7.5 -21.2 32 -13 -10 1006.5 1002.0
09 23.03 С 3 50 км 8/0
[Ci fib]
-8.7 -22.3 32 -14 -14 1006.0 1001.5 -7.4
12 23.03 В 1 50 км 6/0
[Ci fib]
-16.4 -22.2 61 -19 -19 1006.0 1001.4
15 23.03 ЮВ 1 50 км 9/0
[Ci fib]
-20.4 -23.7 75 -23 -23 1005.4 1000.7
18 23.03 штиль 0 50 км 10/0
[Ci fib]
-23.1 -25.7 79 -23 -23 1004.6 999.9
21 23.03 штиль 0 50 км 10/0
[Ci fib]
-24.8 -27.8 76 -25 -25 1004.1 999.3 -24.8 41
00 24.03 З 1 50 км 3/0
[Ac lent Ci fib]
-16.9 -22.8 60 -20 -14 1003.6 999.0 -24.8
03 24.03 Ю 2 50 км ясно -11.5 -19.7 51 -16 -7 1002.8 998.3
06 24.03 Ю 2 50 км 1/0
[Ac lent]
-5.4 -20.4 30 -9 -5 1002.0 997.6
09 24.03 СЗ 2 50 км ясно -5.7 -21.7 27 -9 -9 1003.2 998.8 -4.0
12 24.03 С 1 50 км ясно -13.9 -20.8 56 -16 -16 1004.5 1000.0
15 24.03 штиль 0 50 км ясно -17.8 -22.2 68 -18 -18 1005.6 1001.0
18 24.03 штиль 0 50 км ясно -19.5 -23.4 71 -20 -20 1005.9 1001.2
21 24.03 СЗ 1 50 км 4/4 600 м
[Sc]
-19.6 -23.4 72 -23 -23 1006.6 1001.9 -20.1 41

 

Местоположение метеостанции Богородское (Хабаровский край, Россия): широта 52.38 долгота 140.40 высота над уровнем моря 35 м.

В архиве по умолчанию представлена погода в Богородском за последнюю неделю. Архивные данные за месяц целиком и за предыдущие месяцы, начиная с января 2011 года, Вы можете получить, выбрав интересующий диапазон дат из раскрывающегося списка и нажав кнопку "Ввод!".


*Определитесь, кто Вы:
робот инопланетянин человек

Внимание! Время в таблицах - всемирное. Для получения местного времени необходимо прибавить поправку, которая равна 10 ч.

Смотрите также архив погоды в соседних городах и на ближайших метеорологических станциях:

Погода в Джаоре (Хабаровский край, Россия) (63 км)
Погода в Мариинском (Хабаровский край, Россия) (75 км)
Погода в Погибях (Сахалинская область, Россия) (84 км)
Погода в Николаевск-на-Амуре (Хабаровский край, Россия) (88 км)
Погода в Байдукове (Хабаровский край, Россия) (122 км)
Погода в Удинске (Хабаровский край, Россия) (124 км)
Погода в Циммермановка (Хабаровский край, Россия) (143 км)
Погода в Литке (Хабаровский край, Россия) (175 км)
Погода в Вале (Сахалинская область, Россия) (177 км)
Погода в Ныше (Сахалинская область, Россия) (184 км)

Пояснения к столбцам:

Ветер - указаны скорость ветра в м/с - средняя за 10 мин, порывы в срок и между сроками (в фигурных скобках) и направление, откуда дует ветер: С - северный, СВ - северо-восточный, В - восточный, ЮВ - юго-восточный, Ю - южный, ЮЗ - юго-западный, З - западный, СЗ - северо-западный.
Видимость - горизонтальная дальность видимости в метрах или километрах. При видимости от 1 до 10 км при отсутствии осадков обычно наблюдается дымка, при ухудшении видимости до 1 км и менее - туман. В сухую погоду видимость может ухудшаться дымом, пылью или мглою.
Явления - указаны атмосферные явления, наблюдавшиеся в срок или в последний час перед сроком; фигурными скобками обозначены явления, наблюдавшиеся между сроками (за 1-3 часа до срока); квадратными скобками обозначены град или гололедные отложения с указанием их диаметра в мм.
Облачность - указаны через наклонную черту общая и нижняя облачность в баллах и высота нижней границы облаков в метрах; квадратными скобками обозначены формы облаков: Ci - перистые, Cs - перисто-слоистые, Cc - перисто-кучевые, Ac - высококучевые, As - высокослоистые, Sc - слоисто-кучевые, Ns - слоисто-дождевые, Cu - кучевые, Cb - кучево-дождевые. Подробнее классификацию облаков см. в Атласе облаков (PDF).
T - Температура воздуха - температура, измеренная на высоте 2 м над землей.
Td - Температура точки росы - температура, при понижении до которой содержащийся в воздухе водяной пар достигнет насыщения.
f - Относительная влажность воздуха - влажноcть воздуха, измеренная на высоте 2 м над землей.
Te - Эффективная температура - температура, которую ощущает одетый по сезону человек в тени. Характеристика душности погоды. При расчете учитывается влияние влажности воздуха и скорости ветра на теплоощущения человека.
Tes - Эффективная температура на солнце - температура, которую ощущает человек, с поправкой на солнечный нагрев. Характеристика знойности погоды. Зависит от высоты солнца над горизонтом, облачности и скорости ветра. Ночью, в пасмурную погоду, а также при ветре 12 м/с и более поправка равна нулю.
P - Атмосферное давление - приведенное к уровню моря атмосферное давление.
Po - Атмосферное давление - измеренное на уровне метеостанции атмосферное давление.
Tmin - Минимальная температура - минимум температуры воздуха на высоте 2 м над землей.
Tmax - Максимальная температура - максимум температуры воздуха на высоте 2 м над землей.
R - Количество осадков - Количество выпавших осадков за период времени, мм. При наведении курсора мыши на число - период времени, за который выпало указанное количество осадков.
R24 - Количество осадков - Количество выпавших осадков за 24 часа, мм.
S - Снежный покров - Высота снежного покрова, см. При наведении курсора мыши на число - состояние снежного покрова и степень покрытия местности в баллах.